This is the latest recevied weather packets stored in our database for station/object KM5VY. If no packets are shown the sender has not sent any weather packets the latest 10 day(s).
| Time | Temp. | Humidity | Pressure | Rain* | Wind** | Luminosity | Snow |
|---|---|---|---|---|---|---|---|
| 1777204110 | 2.22° C | 45% | 1011.2 hPa | 0 mm | - | - | - |
| 1777203731 | 2.22° C | 45% | 1011.2 hPa | 0 mm | - | - | - |
| 1777203508 | 2.22° C | 45% | 1011.2 hPa | 0 mm | - | - | - |
| 1777202907 | 2.22° C | 44% | 1011.2 hPa | 0 mm | - | - | - |
| 1777202307 | 2.22° C | 44% | 1011.2 hPa | 0 mm | - | - | - |
| 1777201705 | 2.22° C | 44% | 1011.2 hPa | 0 mm | - | - | - |
| 1777201105 | 2.78° C | 43% | 1011.2 hPa | 0 mm | - | - | - |
| 1777200503 | 2.78° C | 43% | 1011.2 hPa | 0 mm | - | - | - |
| 1777199902 | 2.78° C | 43% | 1011.5 hPa | 0 mm | - | - | - |
| 1777199301 | 2.78° C | 42% | 1011.5 hPa | 0 mm | - | - | - |
| 1777198701 | 3.33° C | 42% | 1011.5 hPa | 0 mm | - | - | - |
| 1777197498 | 3.33° C | 41% | 1011.9 hPa | 0 mm | - | - | - |
| 1777196898 | 3.89° C | 41% | 1011.9 hPa | 0 mm | - | - | - |
| 1777196503 | 3.89° C | 41% | 1011.9 hPa | 0 mm | - | - | - |
| 1777196296 | 3.89° C | 41% | 1011.9 hPa | 0 mm | - | - | - |
| 1777195696 | 3.89° C | 40% | 1011.5 hPa | 0 mm | - | - | - |
| 1777195095 | 4.44° C | 40% | 1011.2 hPa | 0 mm | - | - | - |
| 1777193291 | 5° C | 38% | 1011.5 hPa | 0 mm | - | - | - |
| 1777192941 | 5.56° C | 38% | 1011.5 hPa | 0 mm | - | - | - |
| 1777192690 | 5.56° C | 38% | 1011.5 hPa | 0 mm | - | - | - |
| 1777192089 | 6.11° C | 38% | 1012.2 hPa | 0 mm | - | - | - |
| 1777191488 | 6.11° C | 38% | 1012.5 hPa | 0 mm | - | - | - |
| 1777190887 | 6.67° C | 37% | 1012.9 hPa | 0 mm | - | - | - |
| 1777189686 | 7.22° C | 37% | 1013.9 hPa | 0 mm | - | - | - |
| 1777189372 | 7.78° C | 36% | 1014.2 hPa | 0 mm | - | - | - |
* Rain latest hour (hover to see other rain measurements)
** Current wind speed in m/s (hover to see current wind gust speed)